Погода в Лемболово

Россия / Санкт-Петербург и Ленинградская область     60°22′56″N   30°13′03″E
темп.,
°C
ветер,
м/с
пор.,
м/с
влажн.,
%
обл.,
%
осадки,
мм/ч
давл.,
гПа
погр.,
м
6 августа, пт
пт600:00+10с118529 0.0 101612
03:00+10ссз22881 0.0 101632
06:00+11с23926 0.0 101582
09:00+17всв366776 0.2 1015635
12:00+19всв58533 0.2 10161461
15:00+17в6115752 0.3 10151379
18:00+16в5126434 0.0 10151249
21:00+14всв5127339 0.0 10141064
7 августа, сб
сб700:00+13всв5118462 0.0 1014678
03:00+13всв51188100 0.0 1013604
06:00+13всв51090100 0.0 1012650
09:00+14всв51187100 0.0 1011725
12:00+15всв51292100 0.6 1010731
15:00+15всв61398100 2.1 1009825
18:00+15в61498100 10.5 1008884
21:00+15в51198100 17.7 1007767
8 августа, вс
вс800:00+16вюв3899100 0.2 1007380
03:00+16вюв2799100 0.3 1008346
06:00+16вюв1410083 0.6 1008220
09:00+16ю259679 0.6 1009303
12:00+22ююв23542 0.0 10101341
15:00+21ююз345798 0.1 1011996
18:00+21ю225945 0.1 10121154
21:00+16ю2490100 0.2 101368
9 августа, пн
пн900:00+15ююв2295100 0.0 101436
03:00+14юв239580 0.0 101468
06:00+15ююв269587 0.0 1013132
09:00+20юв367274 0.0 1013430
12:00+20юв377151 0.1 1013658
15:00+21ю377872 0.6 1013377
18:00+21ююз3681100 1.9 1013751
21:00+17ююз379319 2.0 1014269
10 августа, вт
вт1000:00+16юз4109851 0.0 1015474
03:00+15ююз289929 0.0 1016257
06:00+14ююз269824 0.0 1016175
09:00+19ююз36740 0.0 1017619
12:00+22юз455362 0.0 10171327
15:00+23юз454988 0.0 10171514
18:00+22зюз3455100 0.0 10171228
21:00+17зсз1177100 0.0 101711